#timestamp,LO_Frequency,Hit 
1501909215.0,286047013.5,N
1501909215.9,286047013.5,N
1501909235.8,286047009.8,N
1501909255.6,286047012.2,N
1501909275.4,286047011.9,N
1501909295.3,286047009.3,N
1501909315.1,286047010.5,N
1501909316.0,286047010.5,N
1501909335.8,286047010.2,N
1501909355.7,286047008.4,N
1501909375.5,286047008.3,N
1501909395.3,286047006.8,N
1501909415.2,286047009.1,N
1501909435.9,286047006.5,N
1501909455.7,286047009.0,N
1501909475.5,286047006.9,N
1501909495.4,286047007.5,N
1501909515.2,286047007.4,N
1501909535.0,286047007.6,N
1501909535.9,286047007.6,N
1501909555.8,286047006.1,N
1501909575.7,286047007.3,N
1501909595.5,286047007.2,N
1501909615.3,286047004.5,N
1501909635.2,286047006.9,N
1501909655.9,286047006.5,N
1501909675.7,286047006.7,N
1501909695.5,286047009.2,N
1501909715.4,286047007.4,N
1501909735.2,286047007.0,N
1501909755.0,286047008.1,N
1501909755.9,286047008.1,N
1501909775.8,286047008.5,N
1501909795.6,286047007.0,N
1501909815.4,286047007.3,N
1501909835.3,286047007.1,N
1501909855.1,286047007.4,N
1501909856.0,286047007.4,N
1501909875.8,286047008.4,N
1501909895.7,286047007.8,N
1501909915.5,286047007.8,N
1501909935.3,286047008.1,N
1501909955.2,286047010.0,N
1501909975.9,286047008.2,N
1501909995.7,286047006.4,N
1501910015.5,286047006.8,N
1501910035.4,286047006.7,N
1501910055.2,286047006.4,N
1501910075.0,286047007.5,N
1501910075.9,286047007.5,N
1501910095.8,286047005.1,N
1501910115.6,286047004.5,N
1501910135.4,286047005.8,N
1501910155.3,286047007.5,N
1501910175.1,286047005.0,N
1501910176.0,286047005.0,N
1501910195.8,286047007.6,N
1501910215.7,286047007.2,N
1501910235.5,286047007.1,N
1501910255.3,286047006.4,N
1501910275.2,286047006.7,N
1501910295.9,286047004.5,N
1501910315.7,286047007.0,N
1501910335.5,286047007.4,N
1501910355.4,286047006.7,N
1501910375.2,286047006.8,N
1501910395.0,286047007.0,N
1501910395.9,286047007.0,N
1501910415.8,286047006.6,N
1501910435.6,286047007.3,N
1501910455.4,286047007.0,N
1501910475.3,286047007.2,N
1501910495.1,286047007.1,N
1501910515.8,286047007.2,N
1501910535.7,286047006.7,N
1501910555.5,286047007.0,N
1501910575.3,286047007.3,N
1501910595.2,286047005.1,N
1501910615.9,286047003.2,N
1501910635.7,286047004.2,N
1501910655.5,286047006.3,N
1501910675.4,286047010.7,N
1501910695.2,286047009.3,N
1501910715.0,286047011.3,N
1501910715.9,286047011.3,N
1501910735.8,286047013.8,N
1501910755.6,286047015.0,N
1501910775.4,286047013.0,N
1501910795.3,286047012.1,N
1501910815.1,286047012.0,N
1501910816.0,286047012.0,N
1501910835.8,286047008.2,N
1501910855.7,286047006.5,N
1501910875.5,286047008.7,N
1501910895.3,286047006.1,N
1501910915.2,286047006.5,N
1501910935.9,286047006.8,N
1501910955.7,286047008.3,N
1501910975.5,286047006.5,N
1501910995.4,286047007.1,N
1501911015.2,286047004.8,N
1501911035.0,286047005.5,N
1501911035.9,286047005.5,N
1501911055.8,286047005.3,N
1501911075.6,286047005.4,N
1501911095.4,286047005.7,N
1501911115.3,286047005.4,N
1501911135.1,286047007.1,N
1501911155.8,286047006.8,N
1501911175.7,286047007.5,N
1501911195.5,286047004.5,N
1501911215.3,286047007.2,N
1501911235.2,286047006.9,N
1501911255.9,286047007.5,N
1501911275.7,286047004.8,N
1501911295.5,286047005.9,N
1501911315.4,286047005.2,N
1501911335.2,286047004.7,N
1501911355.0,286047004.7,N
1501911355.9,286047004.7,N
1501911375.8,286047006.9,N
1501911395.6,286047006.7,N
1501911415.4,286047008.3,N
1501911435.3,286047008.8,N
1501911455.1,286047009.1,N
1501911456.0,286047009.1,N
1501911475.8,286047009.1,N
1501911495.7,286047006.3,N
1501911515.5,286047004.8,N
1501911535.3,286047005.2,N
1501911555.1,286047005.2,N
1501911575.9,286047003.4,N
1501911595.7,286047005.4,N
1501911615.5,286047005.5,N
1501911635.4,286047005.4,N
1501911655.2,286047005.0,N
1501911675.0,286047006.9,N
1501911675.9,286047006.9,N
1501911695.8,286047006.4,N
1501911715.6,286047007.6,N
1501911735.4,286047007.2,N
1501911755.3,286047008.9,N
1501911775.1,286047006.4,N
1501911776.0,286047006.4,N
1501911795.8,286047004.6,N
1501911815.6,286047004.6,N
1501911835.5,286047007.2,N
1501911855.3,286047009.1,N
1501911875.1,286047005.0,N
1501911895.9,286047005.1,N
1501911915.7,286047005.6,N
1501911935.5,286047003.0,N
1501911955.4,286047006.0,N
1501911975.2,286047005.9,N
1501911995.0,286047004.7,N
1501911995.9,286047004.7,N
1501912015.8,286047006.4,N
1501912035.6,286047006.9,N
1501912055.4,286047007.0,N
1501912075.3,286047005.7,N
1501912095.1,286047005.0,N
1501912096.0,286047005.0,N
1501912115.8,286047005.7,N
1501912135.6,286047006.0,N
1501912155.5,286047004.4,N
1501912175.3,286047004.7,N
1501912195.1,286047006.2,N
1501912215.9,286047004.8,N
1501912235.7,286047006.6,N
1501912255.5,286047008.3,N
1501912275.4,286047010.1,N
1501912295.2,286047010.1,N
1501912315.0,286047009.1,N
1501912315.9,286047009.1,N
1501912335.8,286047006.3,N
1501912355.6,286047004.9,N
1501912375.4,286047006.0,N
1501912395.3,286047004.8,N
1501912415.1,286047005.2,N
1501912416.0,286047005.2,N
1501912435.8,286047003.0,N
1501912455.6,286047001.6,N
1501912475.5,286047002.3,N
1501912495.3,286047001.6,N
1501912515.1,286047003.9,N
1501912535.9,286047001.7,N
1501912555.7,286047001.9,N
1501912575.5,286047002.1,N
1501912595.4,286047003.6,N
1501912615.2,286047005.9,N
1501912635.0,286047001.7,N
1501912635.9,286047001.7,N
1501912655.8,286047004.4,N
1501912675.6,286047001.7,N
1501912695.4,286047004.8,N
1501912715.2,286047007.3,N
1501912735.1,286047005.9,N
1501912736.0,286047005.9,N
1501912755.8,286047005.6,N
1501912775.6,286047007.2,N
1501912795.5,286047004.6,N
